Database contains data from 2013-07-07 to 2026-09-02.
34 measurements (hourly aggregated)
| Time | Temp °C | Dew °C | Humid % | Wind m/s | Gust m/s | Dir ° | Rain mm | Press. hPa | UV | Solar W/m² |
|---|---|---|---|---|---|---|---|---|---|---|
| 01.09.2026 00:00 | 11,3 | 9,7 | 90 | 0,1 | 1,8 | 315 | 0,00 | 1 006,1 | 0,0 | 0 |
| 01.09.2026 01:00 | 10,9 | 9,7 | 92 | 0,0 | 0,9 | – | 0,00 | 1 006,2 | 0,0 | 0 |
| 01.09.2026 02:00 | 10,3 | 9,2 | 93 | 0,0 | 0,0 | – | 0,00 | 1 006,4 | 0,0 | 0 |
| 01.09.2026 03:00 | 9,8 | 9,0 | 94 | 0,0 | 0,0 | – | 0,00 | 1 006,6 | 0,0 | 0 |
| 01.09.2026 04:00 | 9,4 | 8,6 | 95 | 0,0 | 0,9 | – | 0,00 | 1 006,7 | 0,0 | 0 |
| 01.09.2026 05:00 | 9,2 | 8,5 | 95 | 0,0 | 1,3 | 315 | 0,00 | 1 006,8 | 0,0 | 0 |
| 01.09.2026 06:00 | 9,4 | 8,8 | 96 | 0,2 | 1,8 | 338 | 0,00 | 1 006,8 | 0,0 | 5 |
| 01.09.2026 07:00 | 10,0 | 9,3 | 95 | 0,1 | 1,3 | 338 | 0,00 | 1 006,9 | 0,0 | 35 |
| 01.09.2026 08:00 | 11,1 | 10,2 | 94 | 0,3 | 1,8 | 338 | 0,25 | 1 007,1 | 0,0 | 35 |
| 01.09.2026 09:00 | 11,5 | 10,7 | 95 | 0,1 | 1,3 | 338 | 0,51 | 1 007,3 | 0,9 | 54 |
| 01.09.2026 10:00 | 12,3 | 11,5 | 94 | 0,0 | 1,3 | 338 | 0,25 | 1 007,3 | 1,1 | 148 |
| 01.09.2026 11:00 | 13,2 | 11,8 | 92 | 0,3 | 3,1 | 143 | 0,00 | 1 007,3 | 1,4 | 161 |
| 01.09.2026 12:00 | 14,2 | 12,4 | 89 | 1,2 | 3,6 | 148 | 0,00 | 1 007,2 | 1,7 | 227 |
| 01.09.2026 13:00 | 14,7 | 12,2 | 86 | 1,9 | 4,5 | 144 | 0,00 | 1 007,2 | 2,1 | 221 |
| 01.09.2026 14:00 | 13,9 | 12,4 | 91 | 1,4 | 4,5 | 159 | 0,25 | 1 007,0 | 1,6 | 122 |
| 01.09.2026 15:00 | 13,7 | 12,8 | 94 | 1,8 | 4,5 | 158 | 0,00 | 1 006,8 | 1,3 | 108 |
| 01.09.2026 16:00 | 13,6 | 12,8 | 95 | 2,0 | 4,9 | 165 | 0,25 | 1 006,7 | 1,8 | 144 |
| 01.09.2026 17:00 | 13,3 | 12,5 | 95 | 1,8 | 5,8 | 161 | 0,00 | 1 006,7 | 1,1 | 150 |
| 01.09.2026 18:00 | 13,6 | 12,6 | 94 | 2,1 | 5,8 | 154 | 0,00 | 1 006,2 | 0,8 | 69 |
| 01.09.2026 19:00 | 13,8 | 11,9 | 88 | 2,8 | 7,2 | 156 | 0,00 | 1 005,8 | 0,5 | 34 |
| 01.09.2026 20:00 | 13,4 | 11,3 | 88 | 3,6 | 8,0 | 139 | 0,25 | 1 004,8 | 0,0 | 3 |
| 01.09.2026 21:00 | 12,8 | 11,4 | 91 | 3,6 | 8,0 | 139 | 2,79 | 1 003,9 | 0,0 | 0 |
| 01.09.2026 22:00 | 12,7 | 11,7 | 94 | 2,5 | 10,7 | 182 | 1,27 | 1 004,0 | 0,0 | 0 |
| 01.09.2026 23:00 | 12,6 | 11,6 | 94 | 0,1 | 1,8 | 248 | 0,00 | 1 004,7 | 0,0 | 0 |
| 02.09.2026 00:00 | 12,2 | 11,1 | 93 | 0,6 | 3,6 | 225 | 0,00 | 1 005,2 | 0,0 | 0 |
| 02.09.2026 01:00 | 11,6 | 10,4 | 92 | 0,3 | 3,1 | 225 | 0,00 | 1 005,5 | 0,0 | 0 |
| 02.09.2026 02:00 | 11,7 | 10,4 | 92 | 0,7 | 3,1 | 170 | 0,25 | 1 005,1 | 0,0 | 0 |
| 02.09.2026 03:00 | 11,7 | 10,6 | 93 | 0,7 | 4,0 | 189 | 1,52 | 1 005,2 | 0,0 | 0 |
| 02.09.2026 04:00 | 11,7 | 10,8 | 95 | 0,5 | 2,7 | 182 | 0,51 | 1 005,1 | 0,0 | 0 |
| 02.09.2026 05:00 | 11,4 | 10,6 | 94 | 0,8 | 3,6 | 203 | 0,00 | 1 004,9 | 0,0 | 0 |
| 02.09.2026 06:00 | 11,1 | 9,9 | 92 | 0,7 | 4,0 | 221 | 0,25 | 1 005,0 | 0,0 | 1 |
| 02.09.2026 07:00 | 11,0 | 9,9 | 93 | 0,8 | 4,0 | 228 | 0,51 | 1 005,1 | 0,0 | 21 |
| 02.09.2026 08:00 | 11,0 | 9,9 | 93 | 0,6 | 3,6 | 218 | 0,00 | 1 005,5 | 0,6 | 42 |
| 02.09.2026 09:00 | 11,2 | 10,2 | 94 | 0,2 | 2,7 | 203 | 0,25 | 1 005,8 | 0,9 | 109 |